Location: Port Townsend
(48.1170°N, 122.7590°W)
Time: 07:20:12
(UTC-08:00)

Envisat - Visible Passes

Search period start: 10 December 2018 00:00
Search period end: 20 December 2018 00:00
Orbit: 764 x 766 km, 98.2° (Epoch: 10 December)

Date Brightness Start Highest point End Pass type
(mag) Time Alt. Az. Time Alt. Az. Time Alt. Az.
10 Dec 4.6 17:10:26 10° E 17:12:57 14° NE 17:15:28 10° NNE visible
10 Dec 2.8 18:46:06 10° SSE 18:51:10 80° ENE 18:56:17 10° NNW visible
10 Dec 5.7 20:27:56 10° WSW 20:30:49 15° W 20:33:43 10° NW visible
11 Dec 5.7 06:52:07 10° NE 06:55:58 21° E 06:59:48 10° SE visible
11 Dec 3.3 18:09:51 10° SE 18:14:33 40° ENE 18:19:18 10° N visible
11 Dec 4.7 19:49:13 10° SSW 19:53:41 31° W 19:58:10 10° NNW visible
12 Dec 4.1 17:34:23 10° ESE 17:38:09 21° ENE 17:41:55 10° NNE visible
12 Dec 3.3 19:11:42 10° S 19:16:44 63° WSW 19:21:48 10° NNW visible
13 Dec 4.9 07:17:06 10° NNE 07:21:45 35° E 07:26:22 10° SSE visible
13 Dec 4.7 17:00:19 10° ENE 17:01:56 11° NE 17:03:32 10° NE visible
13 Dec 2.9 18:34:58 10° SSE 18:39:59 65° ENE 18:45:03 10° N visible
13 Dec 5.4 20:15:58 10° SW 20:19:29 19° W 20:23:02 10° NW visible
14 Dec 5.8 06:41:19 10° NE 06:44:39 17° E 06:47:57 10° SE visible
14 Dec 3.6 17:58:57 10° SE 18:03:26 33° ENE 18:07:58 10° N visible
14 Dec 4.3 19:37:42 10° SSW 19:42:24 38° W 19:47:08 10° NNW visible
15 Dec 4.3 17:23:45 10° E 17:27:05 18° ENE 17:30:25 10° NNE visible
15 Dec 3.0 19:00:27 10° S 19:05:31 78° WSW 19:10:38 10° NNW visible
15 Dec 6.0 20:44:08 10° W 20:45:24 11° W 20:46:41 10° WNW visible
16 Dec 5.3 07:06:06 10° NE 07:10:28 28° E 07:14:49 10° SSE visible
16 Dec 3.0 18:23:55 10° SE 18:28:50 53° ENE 18:33:47 10° N visible
16 Dec 5.1 20:04:10 10° SW 20:08:10 23° W 20:12:11 10° NW visible
17 Dec 6.0 06:30:43 10° NE 06:33:18 14° E 06:35:53 10° ESE visible
17 Dec 3.8 17:48:06 10° ESE 17:52:20 27° ENE 17:56:35 10° N visible
17 Dec 3.9 19:26:16 10° S 19:31:09 46° W 19:36:03 10° NNW visible
18 Dec 4.5 17:13:16 10° E 17:16:02 15° NE 17:18:49 10° NNE visible
18 Dec 2.8 18:49:14 10° SSE 18:54:19 86° ENE 18:59:27 10° NNW visible
18 Dec 5.8 20:31:29 10° WSW 20:34:02 14° W 20:36:37 10° NW visible
19 Dec 5.6 06:55:09 10° NE 06:59:11 23° E 07:03:11 10° SE visible
19 Dec 3.3 18:12:55 10° SE 18:17:42 43° ENE 18:22:29 10° N visible
19 Dec 4.8 19:52:31 10° SSW 19:56:52 28° W 20:01:14 10° NW visible
